EHI
5 4 5 6 5 4 5 7 8 9 8 7 6 4 2 0 0 1 3 3 2 3 3 3 3 3 3 3 3 3 2 1 0 0 0 0 0 0 0 0 0 0 0
4 5 6 7 6 6 7 8 9 7 6 5 4 4 2 1 0 0 1 2 2 3 3 3 4 4 3 3 3 3 3 1 1 0 0 0 0 0 0 0 0 0 0
5 6 7 7 8 9 9 9 8 6 4 4 4 4 3 3 1 1 1 1 1 2 3 4 5 5 4 4 4 3 3 3 2 1 0 0 0 0 0 0 0 0 0
6 6 7 7 9 10 9 9 7 5 3 4 5 4 4 5 4 3 2 2 2 2 3 4 5 5 5 5 4 4 3 3 3 2 1 0 0 0 0 0 0 0 0
7 7 7 8 9 10 10 8 6 5 4 4 4 4 5 6 6 4 3 3 3 3 3 4 4 5 4 4 4 3 3 4 4 3 2 1 0 0 0 0 0 0 0
7 7 7 8 9 9 9 8 5 4 5 5 4 4 5 6 5 4 3 3 3 4 3 4 4 5 4 4 3 3 4 4 4 3 3 2 1 0 0 0 0 0 0
6 6 6 8 9 8 8 7 5 4 5 6 4 4 4 4 4 4 3 2 2 2 3 3 4 5 6 5 3 3 3 4 3 3 3 3 2 1 0 0 0 0 0
4 4 4 4 5 6 6 6 5 4 4 4 4 3 2 2 2 1 1 1 1 1 1 2 4 6 8 7 5 4 3 3 4 4 4 4 4 2 1 1 0 0 0
4 3 1 1 1 2 4 5 4 3 2 2 2 1 1 1 0 0 0 0 0 0 0 1 3 7 9 9 7 5 3 3 4 4 4 5 5 4 3 2 1 0 0
4 3 1 0 0 1 2 4 4 3 3 2 1 1 2 2 2 1 1 1 0 0 0 0 2 6 9 11 10 6 3 3 4 4 3 4 4 4 3 2 2 1 1
4 2 1 0 0 0 1 3 4 4 3 3 3 3 4 5 4 2 1 1 1 1 1 1 1 3 7 10 10 6 2 2 3 2 1 1 1 1 1 1 1 1 2
4 2 0 0 0 0 0 2 4 3 3 4 4 5 5 6 5 3 1 0 0 1 3 3 2 2 4 6 7 5 2 1 1 1 0 0 0 0 0 0 0 1 1
3 2 1 0 0 0 0 1 2 3 4 6 5 4 4 5 4 3 1 0 0 1 4 5 4 3 4 5 5 4 2 0 0 0 0 0 0 0 0 0 0 0 0
1 1 1 0 1 0 0 0 1 3 5 6 5 4 4 4 3 3 2 1 0 1 2 5 6 4 4 6 5 4 3 1 0 0 0 0 0 0 0 0 0 0 0
2 2 1 1 1 0 0 1 1 3 6 8 6 6 5 4 3 3 3 2 3 2 2 4 6 5 5 6 4 4 5 3 1 0 0 0 0 0 0 0 0 0 0
6 5 4 3 2 1 2 2 3 5 8 9 8 6 5 5 5 5 4 5 7 8 6 4 5 8 9 8 5 5 7 5 2 1 0 0 0 0 0 0 0 0 0
7 6 6 6 5 4 4 5 5 7 9 8 6 5 4 5 6 7 6 8 12 14 12 8 6 10 14 13 9 7 6 4 3 2 0 0 0 0 0 0 0 0 0
7 8 9 10 10 8 8 8 8 8 8 6 4 4 4 6 9 11 12 13 15 15 15 12 10 12 16 15 13 8 4 2 2 1 0 0 0 0 0 0 0 0 0
9 11 14 15 15 13 13 12 11 10 9 7 6 5 5 7 11 14 17 19 17 15 15 15 14 15 16 15 12 8 4 2 1 0 0 0 0 0 0 0 0 0 0
12 14 16 17 17 16 16 14 12 10 10 10 10 9 8 8 11 14 18 19 18 15 15 15 16 17 17 15 12 8 6 5 3 1 1 0 0 0 0 0 0 0 0
15 15 16 15 15 14 12 11 11 10 10 12 13 13 11 10 9 10 11 13 14 14 15 16 16 17 17 16 13 11 9 7 5 3 2 1 0 0 0 0 0 0 0
19 19 18 16 14 11 7 6 6 8 10 13 15 15 13 11 9 7 5 5 8 10 11 14 17 17 17 17 16 12 10 8 6 5 3 1 1 0 0 0 1 0 0
23 22 21 20 17 12 6 3 3 5 10 14 16 16 14 13 11 10 7 5 6 7 8 12 16 16 15 16 15 13 10 8 7 6 4 2 1 0 0 0 0 0 0
25 24 23 22 20 15 7 2 2 4 8 11 13 14 14 13 13 13 12 11 11 10 8 10 13 13 11 11 11 11 10 9 8 8 6 3 2 2 1 1 0 0 0
27 26 24 23 22 17 9 3 3 6 9 11 11 12 12 12 12 11 12 12 12 11 8 7 9 9 7 5 5 8 9 9 9 9 7 5 4 4 4 2 1 0 0
29 27 25 23 21 17 11 4 4 8 11 12 12 12 11 11 10 9 10 11 10 10 8 6 7 6 4 2 2 5 8 8 9 10 9 7 6 5 4 3 2 1 0
Wind_Speed
3 3 2 2 2 2 3 2 2 2 3 3 3 4 3 3 3 2 4 8 8 9 10 10 11 11 11 12 12 11 12 11 11 11 11 10 10 11 11 11 10 10 9
3 2 2 2 1 1 1 1 2 2 2 2 3 3 3 3 3 3 3 7 9 9 10 10 11 11 11 12 12 12 12 12 12 12 12 11 11 11 11 11 11 10 10
2 1 1 2 1 1 2 2 2 2 2 2 2 2 2 2 3 3 3 3 6 10 10 10 10 11 12 12 12 12 12 12 12 12 12 12 11 11 11 11 11 10 10
1 1 1 1 1 1 2 2 2 2 1 1 1 1 2 2 2 3 3 4 3 4 8 10 10 10 11 12 12 13 13 12 12 11 12 12 12 12 11 12 11 10 9
1 1 1 1 1 1 1 2 2 1 1 1 2 2 1 2 2 3 3 3 3 3 4 8 10 9 10 11 12 12 12 12 13 13 13 13 12 12 11 11 11 11 10
0 1 1 1 1 1 1 1 1 1 1 1 1 1 1 2 2 2 3 3 3 4 5 5 6 8 11 10 10 11 12 12 12 13 13 13 13 12 11 12 12 11 10
0 1 1 1 1 1 1 2 2 2 2 1 1 1 2 3 1 1 2 2 2 3 3 4 4 5 6 11 11 10 11 11 11 12 13 13 13 12 12 12 12 11 11
0 1 1 1 1 1 1 2 2 2 1 1 1 1 2 3 2 1 1 1 1 2 2 3 4 4 5 5 7 11 11 11 11 11 13 13 13 12 12 12 12 12 12
1 1 1 1 1 2 1 2 2 2 1 1 1 2 2 0 1 2 1 1 1 1 2 2 3 4 5 5 5 8 10 10 11 11 11 12 12 12 12 12 12 11 11
1 1 1 1 2 1 1 2 1 1 2 1 1 1 2 2 2 1 2 2 2 2 2 2 2 3 4 4 4 4 7 8 9 10 10 10 9 10 11 12 12 12 11
1 1 1 1 1 1 1 1 0 2 2 2 1 1 1 2 3 3 1 1 2 1 2 2 2 2 2 3 3 4 6 6 7 8 8 9 8 8 8 9 9 10 11
2 2 2 1 2 1 1 1 1 2 2 2 2 2 2 2 2 2 2 2 1 1 1 1 2 2 1 2 2 5 6 5 5 6 6 6 7 7 7 7 8 8 8
2 2 2 1 1 1 2 2 2 2 2 2 3 2 2 2 2 2 2 2 2 1 1 1 1 1 1 1 2 6 6 5 5 5 5 5 5 5 5 5 5 6 6
1 1 2 2 2 2 2 2 2 2 2 3 3 3 3 3 2 3 3 2 2 2 1 1 0 0 0 1 3 4 5 6 5 5 5 5 5 5 5 4 3 3 3
2 2 2 3 2 2 2 2 2 2 2 3 3 3 3 2 3 3 3 3 3 3 2 1 1 1 1 1 4 3 4 7 6 5 5 5 6 6 6 5 4 4 4
2 2 2 3 3 2 2 3 3 2 2 2 2 3 3 3 2 3 3 3 3 3 2 1 1 1 1 2 4 3 4 8 7 6 6 5 5 5 6 6 5 5 4
3 3 3 3 3 3 3 2 3 2 3 3 2 2 3 2 2 3 2 2 2 2 2 2 1 1 1 1 2 2 3 3 4 7 7 6 6 5 5 5 5 5 5
4 4 4 3 3 3 3 3 3 3 3 3 3 2 3 2 2 3 2 2 2 2 3 2 1 1 1 2 2 2 2 2 3 7 7 6 6 6 5 5 5 5 5
4 4 4 4 4 3 3 3 3 3 3 3 3 3 3 3 3 2 2 2 2 2 2 2 2 1 1 2 2 2 2 1 2 5 7 6 6 6 5 5 5 5 5
4 4 4 4 4 3 3 3 3 3 3 3 3 3 3 3 3 3 2 2 2 2 2 3 2 2 2 2 2 2 2 2 2 2 3 4 6 7 6 6 6 6 5
4 4 4 4 4 3 2 3 3 3 3 3 2 2 1 1 2 2 2 2 2 2 2 2 3 3 3 4 3 3 3 3 2 2 3 3 4 4 5 6 6 6 5
4 4 4 4 3 2 0 1 3 3 3 3 3 2 2 2 1 1 1 2 2 3 3 3 3 3 4 4 3 4 4 4 3 2 3 2 3 3 3 3 6 8 6
5 4 4 4 3 2 0 1 3 4 3 2 3 3 3 1 2 2 2 3 2 1 3 4 4 4 4 4 4 5 4 3 2 3 3 3 3 2 2 4 8 7 6
5 5 4 4 4 3 2 2 3 4 3 3 3 3 3 2 2 2 2 1 1 1 2 3 3 3 3 3 4 4 4 4 3 3 3 3 3 2 2 3 8 8 7
5 5 5 4 4 3 3 3 4 4 3 3 3 2 3 2 1 2 2 2 1 1 2 2 1 1 1 2 3 4 5 5 4 4 4 3 2 2 3 3 6 9 7
5 5 5 5 5 4 4 3 5 4 3 3 3 3 1 2 1 2 3 3 3 2 2 2 3 4 4 4 5 6 5 5 4 3 4 3 3 3 3 3 4 6 7
Wind_Direction
104 101 105 112 123 124 144 152 155 156 174 181 189 187 197 206 201 198 151 166 185 199 202 201 202 202 203 202 202 199 198 198 197 197 196 196 197 198 198 200 200 196 195
92 101 118 108 108 118 118 167 164 177 191 180 195 196 214 211 194 205 194 176 189 200 202 205 206 207 207 203 204 204 203 204 203 203 203 203 204 202 201 204 206 203 203
93 111 119 135 115 135 158 172 175 185 190 181 186 193 206 213 197 207 217 203 188 194 202 208 212 211 210 209 208 208 207 207 208 208 208 208 209 207 207 208 207 207 206
114 172 138 112 128 184 178 166 188 187 183 188 173 203 183 186 201 210 215 208 210 199 192 202 210 212 214 215 214 212 210 208 207 208 208 210 212 209 208 209 209 208 208
151 200 134 109 200 195 187 200 148 194 178 188 191 175 185 189 199 210 215 216 214 222 206 185 200 210 217 219 218 216 215 212 209 210 212 212 213 211 209 210 211 210 211
162 257 192 159 196 171 175 173 181 192 207 201 228 155 187 182 211 207 219 211 209 218 223 213 201 203 210 219 222 220 220 217 214 213 215 217 215 212 210 211 212 213 215
88 244 270 150 208 168 187 200 200 186 196 180 201 185 174 169 186 210 223 240 222 226 230 230 228 225 202 206 217 221 220 221 218 215 217 218 217 214 212 213 213 214 215
215 192 178 212 191 176 196 210 216 222 179 186 239 234 198 167 168 162 183 213 244 234 228 230 236 235 236 214 197 208 217 220 220 218 215 216 218 215 214 213 214 215 218
220 250 182 206 194 209 186 217 216 217 204 186 245 284 272 221 174 157 175 193 219 240 242 232 228 234 234 228 213 199 206 214 216 217 216 214 214 213 214 214 215 217 221
241 198 191 200 221 233 186 224 188 227 229 219 188 243 293 328 282 198 180 167 185 229 260 265 246 231 232 229 217 206 193 201 207 211 217 216 212 213 214 217 219 221 220
209 210 194 204 209 224 221 275 227 252 238 255 258 230 224 224 254 270 258 219 200 211 233 260 268 262 245 230 216 191 174 186 196 204 212 214 208 203 206 208 213 216 219
200 202 206 208 221 230 212 229 248 231 256 276 276 269 255 258 252 253 259 255 260 259 244 282 272 259 249 225 186 141 150 163 176 184 191 196 198 195 201 200 207 212 213
201 191 216 211 231 227 236 239 231 260 256 257 259 265 265 269 279 272 269 270 281 268 251 238 257 251 230 194 142 129 138 137 145 154 160 165 164 167 174 185 198 206 206
231 194 213 216 223 234 239 228 242 241 247 259 270 284 271 262 267 262 265 267 268 260 235 264 80 132 132 134 97 132 130 130 140 148 154 156 155 156 158 163 168 169 174
240 213 224 225 232 236 245 240 246 248 246 253 262 253 259 266 258 267 264 263 269 276 284 263 248 100 126 102 108 127 120 113 126 137 147 151 148 150 150 146 139 135 133
246 241 232 231 233 238 242 245 240 230 242 252 263 286 286 284 287 267 257 256 259 267 281 324 336 4 90 114 114 128 117 115 119 125 127 133 139 140 144 143 141 136 134
223 226 227 229 230 236 238 234 251 253 255 262 263 259 267 282 279 278 262 248 243 243 250 280 286 73 126 149 128 144 147 153 133 131 131 129 127 135 145 148 144 136 130
215 216 219 221 228 230 232 234 246 251 253 261 267 271 272 264 271 276 274 262 249 232 230 236 241 215 171 167 150 162 164 145 139 121 127 129 131 131 133 139 137 131 129
214 216 214 217 221 226 231 237 244 251 250 255 262 267 275 275 270 268 261 253 241 227 214 208 217 205 195 162 152 148 134 133 136 131 134 136 138 137 135 134 132 128 127
206 208 210 213 217 219 225 233 234 244 252 261 267 269 278 277 272 265 257 257 253 242 208 200 196 192 190 172 171 165 161 160 158 148 132 137 141 147 146 144 141 137 134
200 203 208 210 212 212 231 241 235 231 243 254 259 261 272 317 346 314 294 277 259 248 231 212 206 199 197 181 191 188 175 157 156 178 168 164 162 165 161 163 160 149 143
197 202 207 210 211 215 31 308 272 245 244 254 259 253 230 210 201 202 277 304 291 258 251 242 230 219 216 208 195 194 188 185 184 181 183 179 173 168 171 170 142 150 156
193 202 204 206 207 204 170 219 261 254 243 251 258 261 261 240 221 228 199 195 206 250 255 252 245 241 222 207 197 201 198 200 196 181 190 193 184 180 177 134 135 150 160
196 198 204 204 204 192 180 215 247 230 238 245 252 258 261 263 283 276 246 231 235 229 242 233 238 246 236 204 205 207 191 186 196 199 200 211 194 192 172 155 149 162 170
199 199 196 202 205 197 190 220 246 223 217 229 239 247 255 246 324 300 235 220 228 202 126 105 66 129 113 162 202 202 197 197 205 201 197 216 210 197 188 179 160 166 174
205 204 192 199 204 203 180 207 245 230 223 223 213 208 191 245 222 256 229 221 227 231 205 162 158 173 182 187 210 222 218 215 211 212 189 202 208 208 207 192 179 174 178